CW1459 Weather Reports


time (UTC)temp
C
wind
direction
speed
KPH
gust
KPH
rain 1hr
cm
rain 24hr
cm
rain mn
cm
humidity
%
barometer
mb
20260903141337 22 124 6.4 17.7 0.00 0.28 0.05 93 1016.6
20260903140333 22 247 8.0 19.3 0.00 0.28 0.05 93 1017.4
20260903135334 23 249 4.8 9.7 0.00 0.28 0.05 93 1016.6
20260903134336 23 141 4.8 8.0 0.00 0.28 0.05 93 1015.6
20260903133332 22 161 4.8 14.5 0.00 0.28 0.05 93 1015.8
20260903132335 22 236 6.4 16.1 0.00 0.28 0.05 94 1016.5
20260903131316 22 166 3.2 14.5 0.05 0.28 0.05 94 1016.3
20260903130317 22 202 4.8 8.0 0.05 0.28 0.05 93 1016.1
20260903125318 22 199 4.8 9.7 0.05 0.28 0.05 93 1016.5
20260903124325 22 219 3.2 6.4 0.05 0.28 0.05 92 1016.7
20260903123333 22 46 1.6 4.8 0.05 0.28 0.05 91 1016.6
20260903122337 22 330 3.2 6.4 0.05 0.28 0.05 91 1017.2
20260903121313 22 145 4.8 9.7 0.00 0.23 0.00 90 1016.8
20260903120317 22 123 4.8 8.0 0.00 0.23 0.00 90 1016.6
20260903115314 22 235 4.8 11.3 0.00 0.23 0.00 90 1017.1
20260903114312 22 159 3.2 8.0 0.00 0.23 0.00 90 1017.0
20260903113323 22 106 3.2 9.7 0.00 0.23 0.00 91 1016.8
20260903112333 22 42 4.8 16.1 0.00 0.23 0.00 92 1016.7
20260903111336 22 351 4.8 12.9 0.00 0.23 0.00 92 1016.5
20260903110315 22 105 3.2 6.4 0.00 0.23 0.00 93 1016.6
20260903105338 22 360 0.0 6.4 0.00 0.23 0.00 93 1016.9
20260903104313 22 351 3.2 9.7 0.00 0.23 0.00 93 1016.8
20260903103324 22 96 6.4 14.5 0.00 0.23 0.00 93 1016.5
20260903102340 22 119 4.8 14.5 0.00 0.23 0.00 93 1016.8
20260903101317 22 5 8.0 14.5 0.00 0.23 0.00 93 1016.8
20260903100315 22 351 4.8 9.7 0.00 0.23 0.00 93 1016.8
20260903095334 22 342 6.4 8.0 0.00 0.23 0.00 93 1016.7
20260903094313 22 24 3.2 16.1 0.00 0.23 0.00 92 1016.0
20260903093334 22 130 8.0 12.9 0.00 0.23 0.00 92 1015.6
20260903092322 22 117 9.7 16.1 0.00 0.23 0.00 92 1015.5
20260903091356 22 132 1.6 4.8 0.00 0.23 0.00 91 1015.7
20260903090340 22 104 1.6 6.4 0.00 0.23 0.00 91 1015.6
20260903085319 22 17 3.2 11.3 0.00 0.23 0.00 91 1015.8
20260903084403 22 92 4.8 14.5 0.00 0.23 0.00 91 1015.6
20260903083334 22 178 1.6 4.8 0.00 0.23 0.00 91 1015.2
20260903082338 22 146 3.2 6.4 0.00 0.23 0.00 91 1015.1
20260903081318 22 316 1.6 4.8 0.00 0.23 0.00 91 1015.1
20260903080342 22 129 1.6 4.8 0.00 0.23 0.00 92 1014.8
20260903075316 22 167 1.6 6.4 0.00 0.23 0.00 92 1014.7
20260903074338 22 203 3.2 8.0 0.00 0.23 0.00 91 1014.8
20260903073316 22 140 3.2 12.9 0.00 0.23 0.00 91 1014.9
20260903072338 22 148 3.2 6.4 0.00 0.23 0.00 91 1015.1
20260903071319 22 111 4.8 6.4 0.00 0.23 0.00 91 1015.0
20260903070318 22 32 0.0 3.2 0.00 0.23 0.00 90 1015.2
20260903065335 22 32 1.6 3.2 0.00 0.23 0.00 90 1015.2
20260903064338 22 32 0.0 1.6 0.00 0.23 0.00 89 1015.2
20260903063327 22 32 1.6 3.2 0.00 0.23 0.00 89 1015.0
20260903062324 23 32 1.6 3.2 0.00 0.23 0.00 89 1014.9
20260903061338 23 32 1.6 3.2 0.00 0.23 0.00 89 1014.8
20260903060317 23 32 0.0 3.2 0.00 0.23 0.00 88 1014.6
20260903055317 23 19 3.2 4.8 0.00 0.23 0.00 88 1014.6
20260903054341 23 225 0.0 1.6 0.00 0.23 0.00 87 1014.5
20260903053339 23 225 0.0 6.4 0.00 0.23 0.00 86 1014.5
20260903052319 23 184 4.8 6.4 0.00 0.23 0.00 86 1014.7
20260903051317 23 182 3.2 6.4 0.00 0.23 0.00 86 1014.7
20260903050318 23 165 3.2 4.8 0.00 0.23 0.00 86 1014.9
20260903045356 23 200 0.0 3.2 0.00 0.23 0.00 85 1015.1
20260903044339 23 200 1.6 4.8 0.00 0.23 0.00 84 1015.0
20260903043340 23 198 1.6 6.4 0.00 0.23 0.00 84 1014.9
20260903042319 23 147 6.4 11.3 0.00 0.23 0.00 84 1015.2
20260903041318 23 170 3.2 8.0 0.00 0.23 0.00 84 1015.5
20260903040318 23 215 1.6 11.3 0.00 0.23 0.00 85 1015.6
20260903035320 23 175 3.2 9.7 0.00 0.23 0.23 85 1015.6
20260903034317 23 138 9.7 17.7 0.00 0.23 0.23 85 1015.8
20260903033339 23 133 8.0 16.1 0.00 0.23 0.23 86 1016.0
20260903032338 23 136 6.4 12.9 0.00 0.23 0.23 86 1015.9
20260903031319 23 165 4.8 8.0 0.00 0.23 0.23 85 1015.6
20260903030316 23 157 4.8 8.0 0.00 0.23 0.23 85 1015.4
20260903025318 23 155 6.4 12.9 0.00 0.23 0.23 85 1015.4
20260903024344 23 156 8.0 14.5 0.00 0.23 0.23 85 1015.3
20260903023321 23 155 3.2 8.0 0.00 0.23 0.23 85 1015.3
20260903022322 23 163 4.8 14.5 0.00 0.23 0.23 85 1015.3
20260903021336 23 113 4.8 11.3 0.00 0.23 0.23 85 1015.4
20260903020340 23 132 6.4 12.9 0.00 0.23 0.23 85 1015.6
20260903015316 23 164 6.4 14.5 0.00 0.23 0.23 86 1015.8
20260903014333 23 128 3.2 6.4 0.00 0.23 0.23 85 1015.8
20260903013337 23 163 4.8 9.7 0.00 0.23 0.23 86 1015.7
20260903012319 23 138 3.2 6.4 0.00 0.23 0.23 86 1015.6
20260903011341 23 146 4.8 11.3 0.00 0.23 0.23 86 1015.7
20260903010400 23 92 3.2 8.0 0.00 0.23 0.23 86 1015.3
20260903005321 23 98 0.0 3.2 0.00 0.23 0.23 85 1015.5
20260903004339 23 269 1.6 9.7 0.00 0.23 0.23 85 1015.5
20260903003338 23 234 4.8 8.0 0.00 0.23 0.23 84 1015.1
20260903002359 23 148 1.6 3.2 0.00 0.23 0.23 84 1015.4
20260903001314 23 117 1.6 4.8 0.00 0.23 0.23 84 1015.8
20260903000317 23 207 1.6 6.4 0.00 0.23 0.23 83 1016.0
20260902235321 24 170 1.6 3.2 0.00 0.23 0.23 82 1016.0
20260902234329 24 170 0.0 6.4 0.00 0.23 0.23 81 1016.1
20260902233324 25 171 6.4 9.7 0.00 0.23 0.23 79 1016.0
20260902232336 25 109 3.2 11.3 0.00 0.23 0.23 78 1016.4
20260902231333 25 194 4.8 9.7 0.00 0.23 0.23 76 1016.5
20260902230401 26 169 1.6 4.8 0.00 0.23 0.23 75 1016.2
20260902225316 26 162 6.4 12.9 0.00 0.23 0.23 73 1016.1
20260902224328 26 198 6.4 12.9 0.00 0.23 0.23 73 1015.8
20260902223325 26 212 4.8 19.3 0.00 0.23 0.23 73 1015.7
20260902222334 26 137 9.7 25.7 0.00 0.23 0.23 74 1015.7
20260902221315 27 119 9.7 24.1 0.00 0.23 0.23 74 1015.6
20260902220340 27 151 11.3 19.3 0.00 0.23 0.23 73 1015.5
20260902215333 27 108 9.7 20.9 0.00 0.23 0.23 73 1015.7
20260902214336 28 215 8.0 16.1 0.00 0.23 0.23 73 1016.0
20260902213326 28 146 6.4 17.7 0.00 0.23 0.23 73 1016.2
20260902212354 28 108 9.7 16.1 0.00 0.23 0.23 72 1016.0
20260902211314 28 121 8.0 14.5 0.00 0.23 0.23 72 1016.0
20260902210318 29 132 4.8 11.3 0.00 0.23 0.23 70 1016.0
20260902205317 29 162 4.8 9.7 0.00 0.23 0.23 70 1016.2
20260902204331 28 103 1.6 9.7 0.00 0.23 0.23 70 1015.9
20260902203336 28 159 4.8 8.0 0.00 0.23 0.23 73 1016.0
20260902202314 28 248 4.8 8.0 0.00 0.23 0.23 73 1016.1
20260902201336 28 351 1.6 4.8 0.00 0.23 0.23 76 1016.2
20260902200335 28 276 3.2 6.4 0.00 0.23 0.23 73 1016.4
20260902195334 27 112 3.2 8.0 0.00 0.23 0.23 75 1016.2
20260902194333 27 211 3.2 9.7 0.00 0.23 0.23 76 1016.2
20260902193332 26 201 1.6 8.0 0.00 0.23 0.23 79 1016.1
20260902192316 25 195 1.6 8.0 0.00 0.23 0.23 82 1016.2
20260902191316 25 120 4.8 12.9 0.00 0.23 0.23 83 1016.3
20260902190314 25 97 1.6 6.4 0.00 0.23 0.23 83 1016.6
20260902185347 25 145 3.2 9.7 0.00 0.23 0.23 83 1016.9
20260902184334 26 159 1.6 8.0 0.00 0.23 0.23 81 1016.9
20260902183339 26 169 1.6 14.5 0.00 0.23 0.23 81 1016.8
20260902182340 26 155 6.4 12.9 0.00 0.23 0.23 80 1017.0
20260902181336 26 131 3.2 9.7 0.00 0.23 0.23 82 1016.8
20260902180315 26 175 1.6 4.8 0.00 0.23 0.23 81 1017.0
20260902175349 25 337 0.0 6.4 0.00 0.23 0.23 84 1016.8
20260902174330 25 40 3.2 11.3 0.15 0.23 0.23 83 1016.7
20260902173332 25 109 1.6 12.9 0.23 0.23 0.23 86 1017.2
20260902172313 25 24 4.8 12.9 0.23 0.23 0.23 90 1017.8
20260902171314 23 36 4.8 9.7 0.23 0.23 0.23 91 1018.3
20260902170337 23 41 3.2 8.0 0.23 0.23 0.23 90 1018.1
20260902165351 23 5 4.8 14.5 0.23 0.23 0.23 83 1018.5
20260902164317 25 47 6.4 32.2 0.05 0.05 0.05 72 1019.3
20260902163336 28 321 17.7 51.5 0.00 0.00 0.00 61 1019.8
20260902162314 30 324 9.7 16.1 0.00 0.00 0.00 67 1018.3
20260902161335 31 342 6.4 9.7 0.00 0.00 0.00 66 1017.7
20260902160356 30 208 1.6 3.2 0.00 0.00 0.00 69 1017.5
20260902155326 30 208 1.6 4.8 0.00 0.00 0.00 69 1017.5
20260902154334 30 209 3.2 6.4 0.00 0.00 0.00 69 1017.4
20260902153314 31 215 3.2 6.4 0.00 0.00 0.00 68 1017.1
20260902152315 30 171 6.4 11.3 0.00 0.00 0.00 68 1016.9
20260902151315 30 157 4.8 12.9 0.00 0.00 0.00 69 1016.9
20260902150315 30 166 4.8 11.3 0.00 0.00 0.00 70 1017.0
20260902145314 30 171 3.2 6.4 0.00 0.00 0.00 67 1016.9
20260902144358 30 156 4.8 9.7 0.00 0.00 0.00 69 1016.9
20260902143313 30 185 6.4 11.3 0.00 0.00 0.00 68 1016.9
20260902142336 29 138 1.6 11.3 0.00 0.00 0.00 70 1017.0